CW2026 Weather Reports


time (UTC)temp
C
wind
direction
speed
KPH
gust
KPH
rain 1hr
cm
rain 24hr
cm
rain mn
cm
humidity
%
barometer
mb
20260504211528 13 249 3.2 16.1 0.00 0.08 0.08 68 1004.9
20260504210026 12 286 3.2 20.9 0.00 0.08 0.08 70 1004.9
20260504204537 12 262 3.2 19.3 0.00 0.08 0.08 70 1004.8
20260504203029 12 292 1.6 12.9 0.00 0.08 0.08 71 1004.6
20260504201518 12 306 0.0 11.3 0.00 0.08 0.08 75 1004.8
20260504200024 12 313 1.6 12.9 0.00 0.08 0.08 76 1004.8
20260504194527 12 279 3.2 19.3 0.00 0.10 0.08 74 1004.7
20260504193003 12 284 8.0 19.3 0.00 0.10 0.08 76 1004.8
20260504191505 11 290 3.2 17.7 0.00 0.13 0.08 81 1004.7
20260504190011 10 287 3.2 14.5 0.03 0.13 0.08 85 1004.9
20260504184522 10 248 1.6 12.9 0.08 0.15 0.08 89 1005.1
20260504183010 10 277 0.0 11.3 0.08 0.18 0.08 88 1005.0
20260504181511 9 304 1.6 11.3 0.08 0.20 0.08 89 1005.3
20260504180010 10 298 8.0 24.1 0.05 0.23 0.05 83 1005.4
20260504174512 12 287 14.5 37.0 0.00 0.20 0.00 69 1005.2
20260504173008 12 300 11.3 25.7 0.00 0.28 0.00 60 1004.2
20260504171512 14 266 6.4 24.1 0.00 0.30 0.00 48 1004.0
20260504081525 2 248 1.6 16.1 0.00 1.40 0.00 88 1004.3
20260504044536 5 300 6.4 19.3 0.00 1.55 0.00 92 1002.9
20260504043039 5 324 8.0 25.7 0.00 1.55 0.00 91 1002.8
20260504041530 5 327 11.3 22.5 0.00 1.55 0.00 92 1002.5
20260504040013 5 299 3.2 17.7 0.00 1.55 0.00 93 1002.5
20260504034504 5 325 8.0 22.5 0.00 1.55 1.55 93 1002.3
20260504033012 5 321 6.4 17.7 0.00 1.55 1.55 93 1002.1
20260504031519 5 309 8.0 19.3 0.00 1.55 1.55 94 1002.0
20260504030020 5 319 8.0 17.7 0.00 1.55 1.55 94 1001.8
20260504024503 5 321 6.4 19.3 0.00 1.55 1.55 94 1001.7
20260504023008 5 300 4.8 16.1 0.00 1.55 1.55 94 1001.7
20260504021515 5 331 8.0 20.9 0.00 1.55 1.55 94 1001.6
20260504020019 5 288 9.7 22.5 0.00 1.55 1.55 93 1001.7
20260504014533 5 331 11.3 20.9 0.00 1.55 1.55 93 1001.6
20260504013008 5 319 12.9 24.1 0.00 1.55 1.55 94 1001.5
20260504011510 5 339 12.9 24.1 0.00 1.55 1.55 94 1001.6
20260504010015 5 317 8.0 30.6 0.00 1.55 1.55 94 1001.2
20260504004520 5 335 8.0 24.1 0.00 1.55 1.55 94 1001.1
20260504003021 5 313 11.3 20.9 0.00 1.55 1.55 94 1000.8
20260504001525 5 319 9.7 25.7 0.00 1.55 1.55 95 1000.7
20260504000029 5 323 12.9 22.5 0.00 1.55 1.55 95 1000.4
20260503234529 5 331 6.4 24.1 0.00 1.55 1.55 95 1000.3
20260503233021 5 311 6.4 20.9 0.00 1.55 1.55 95 1000.3
20260503231524 5 349 8.0 22.5 0.00 1.55 1.55 94 1000.2
20260503230028 5 9 9.7 24.1 0.00 1.55 1.55 95 1000.1
20260503224529 5 346 8.0 30.6 0.00 1.55 1.55 94 1000.1
20260503223028 5 352 16.1 27.4 0.00 1.55 1.55 94 1000.0
20260503221525 5 360 12.9 30.6 0.00 1.55 1.55 94 1000.0
20260503220024 5 342 17.7 30.6 0.00 1.55 1.55 94 1000.0
20260503214539 5 5 17.7 30.6 0.00 1.55 1.55 94 999.9
20260503213017 5 327 12.9 25.7 0.00 1.55 1.55 94 1000.0